Location: Marsån
(66.4167°N, 22.2833°E)
Time: 11:28:33
(UTC+00:00)

SL-16 R/B - Pass Details

Date: 24 February 2024
Orbit: 841 x 848 km, 71.0° (Epoch: 15 April)

Event Time Altitude Azimuth Distance (km) Brightness Sun altitude
Rises 22:53:53 0° 317° (NW) 3,411 5.9 -32.9°
Reaches altitude 10° 22:56:49 10° 303° (WNW) 2,473 4.9 -32.9°
Enters shadow 22:58:29 16° 289° (WNW) 2,053 4.3 -32.9°
